Location: Chagrin Falls Park
(41.4139°N, 81.3865°W)
Time: 00:28:09
(UTC+00:00)

STARLINK-2758 - Pass Details

Date: 31 July 2021
Orbit: 546 x 548 km, 53.1° (Epoch: 20 September)

Event Time Altitude Azimuth Distance (km) Brightness Sun altitude
Rises 02:48:35 0° 293° (WNW) 2,719 8.3 -19.4°
Reaches altitude 10° 02:51:29 10° 272° (W) 1,821 6.8 -19.7°
Maximum altitude 02:54:04 16° 233° (SW) 1,459 5.8 -20.1°
Enters shadow 02:55:05 15° 216° (SW) 1,517 5.7 -20.2°
